Adak, AK

2:01 PM HDT on July 26, 2017 (GMT -0900)
Adak

Weather History for PADK - February, 2014

Change the Weather History Date:

Friday, February 28, 2014

  Actual Average Record
Temperature  
Mean Temperature 29 °F -  
Max Temperature 37 °F 38 °F 47 °F (1962)
Min Temperature 21 °F 29 °F 11 °F (1957)
Degree Days  
Heating Degree Days 36    
Moisture  
Dew Point 27 °F    
Average Humidity 69    
Maximum Humidity 81    
Minimum Humidity 47    
Precipitation  
Precipitation 0.00 in - - ()
Sea Level Pressure  
Sea Level Pressure 29.54 in    
Wind  
Wind Speed 20 mph (NE)    
Max Wind Speed 25 mph    
Max Gust Speed 34 mph    
Visibility 10 miles    
Events      
Averages and records for this station are not official NWS values.
T = Trace of Precipitation, MM = Missing Value Source: NWS Daily Summary

Daily Weather History Graph

Daily Weather History Graph

Search for Another Location

Airport or City:

Trip Planner

Search our weather history database for the weather conditions in past years. The results will help you decide how hot, cold, wet, or windy it might be!

Date:

Astronomy

Feb. 28, 2014 Rise Set
Actual Time 8:33 AM HST 7:25 PM HST
Civil Twilight 7:59 AM HST 7:59 PM HST
Nautical Twilight 7:21 AM HST 8:38 PM HST
Astronomical Twilight 6:41 AM HST 9:17 PM HST
Moon 7:57 AM HST (2/28) 7:23 PM HST (2/28)
Length of Visible Light 11h 59m
Length of Day
10h 51m
Waning Crescent, 0% of the Moon is Illuminated
Feb 28
Waning Crescent
Feb 28
New
Mar 8
First Quarter
Mar 16
Full
Mar 23
Last Quarter

Hourly Weather History & Observations

Time (HST) Temp. Windchill Dew Point Humidity Pressure Visibility Wind Dir Wind Speed Gust Speed Precip Events Conditions
12:16 AM 35.6 °F 24.8 °F 23.0 °F 60% 29.50 in 10.0 mi ENE 19.6 mph - N/A   Overcast
12:36 AM 35.6 °F 24.5 °F 24.8 °F 65% 29.50 in 10.0 mi East 20.7 mph - N/A   Mostly Cloudy
12:56 AM 35.6 °F 25.2 °F 24.8 °F 65% 29.50 in 10.0 mi East 18.4 mph - N/A   Overcast
1:16 AM 35.6 °F 24.2 °F 23.0 °F 60% 29.51 in 10.0 mi East 21.9 mph - N/A   Overcast
1:36 AM 35.6 °F 24.5 °F 24.8 °F 65% 29.52 in 10.0 mi East 20.7 mph 25.3 mph N/A   Overcast
1:56 AM 35.6 °F 24.5 °F 23.0 °F 60% 29.52 in 10.0 mi ENE 20.7 mph 27.6 mph N/A   Overcast
2:16 AM 35.6 °F 24.5 °F 23.0 °F 60% 29.52 in 10.0 mi East 20.7 mph - N/A   Overcast
2:36 AM 35.6 °F 25.2 °F 24.8 °F 65% 29.52 in 10.0 mi ENE 18.4 mph 25.3 mph N/A   Overcast
2:56 AM 35.6 °F 24.8 °F 24.8 °F 65% 29.52 in 10.0 mi ENE 19.6 mph - N/A   Overcast
3:16 AM 35.6 °F 24.2 °F 24.8 °F 65% 29.51 in 10.0 mi ENE 21.9 mph - N/A   Overcast
3:36 AM 35.6 °F 25.2 °F 24.8 °F 65% 29.51 in 10.0 mi ENE 18.4 mph - N/A   Overcast
3:56 AM 35.6 °F 25.5 °F 24.8 °F 65% 29.51 in 10.0 mi ENE 17.3 mph - N/A   Overcast
4:16 AM 35.6 °F 25.9 °F 24.8 °F 65% 29.51 in 10.0 mi ENE 16.1 mph - N/A   Overcast
4:36 AM 35.6 °F 26.2 °F 24.8 °F 65% 29.51 in 10.0 mi NE 15.0 mph 19.6 mph N/A   Overcast
4:56 AM 35.6 °F 25.2 °F 24.8 °F 65% 29.51 in 10.0 mi ENE 18.4 mph 21.9 mph N/A   Overcast
5:16 AM 35.6 °F 24.5 °F 26.6 °F 70% 29.51 in 10.0 mi ENE 20.7 mph - N/A   Overcast
5:36 AM 35.6 °F 24.8 °F 26.6 °F 70% 29.51 in 10.0 mi ENE 19.6 mph - N/A   Overcast
5:56 AM 35.6 °F 24.8 °F 24.8 °F 65% 29.52 in 10.0 mi ENE 19.6 mph - N/A   Overcast
6:16 AM 35.6 °F 24.8 °F 24.8 °F 65% 29.52 in 10.0 mi ENE 19.6 mph - N/A   Overcast
6:36 AM 35.6 °F 24.2 °F 24.8 °F 65% 29.53 in 10.0 mi ENE 21.9 mph 27.6 mph N/A   Overcast
6:56 AM 35.6 °F 25.5 °F 24.8 °F 65% 29.53 in 10.0 mi ENE 17.3 mph - N/A   Overcast
7:16 AM 35.6 °F 25.2 °F 24.8 °F 65% 29.53 in 10.0 mi ENE 18.4 mph - N/A   Overcast
7:36 AM 35.6 °F 25.5 °F 26.6 °F 70% 29.53 in 10.0 mi ENE 17.3 mph - N/A   Overcast
7:56 AM 35.6 °F 24.8 °F 24.8 °F 65% 29.53 in 10.0 mi NE 19.6 mph - N/A   Overcast
8:16 AM 35.6 °F 24.0 °F 24.8 °F 65% 29.53 in 10.0 mi NE 23.0 mph - N/A   Overcast
8:36 AM 35.6 °F 25.2 °F 24.8 °F 65% 29.53 in 10.0 mi NE 18.4 mph - N/A   Overcast
8:56 AM 35.6 °F 24.8 °F 26.6 °F 70% 29.54 in 10.0 mi NE 19.6 mph 25.3 mph N/A   Overcast
9:16 AM 35.6 °F 26.6 °F 26.6 °F 70% 29.54 in 10.0 mi NNE 13.8 mph - N/A   Overcast
9:36 AM 35.6 °F 25.5 °F 28.4 °F 75% 29.54 in 10.0 mi NE 17.3 mph - N/A   Overcast
9:56 AM 35.6 °F 25.2 °F 26.6 °F 70% 29.54 in 10.0 mi NE 18.4 mph - N/A   Overcast
10:16 AM 35.6 °F 27.1 °F 26.6 °F 70% 29.55 in 10.0 mi NE 12.7 mph 20.7 mph N/A   Overcast
10:36 AM 37.4 °F 26.9 °F 26.6 °F 65% 29.55 in 10.0 mi ENE 20.7 mph 24.2 mph N/A   Overcast
10:56 AM 37.4 °F 27.5 °F 26.6 °F 65% 29.55 in 10.0 mi ENE 18.4 mph 23.0 mph N/A   Overcast
11:16 AM 37.4 °F 27.5 °F 26.6 °F 65% 29.55 in 10.0 mi ENE 18.4 mph - N/A   Overcast
11:36 AM 37.4 °F 27.2 °F 26.6 °F 65% 29.56 in 10.0 mi ENE 19.6 mph 27.6 mph N/A   Overcast
11:56 AM 37.4 °F 27.8 °F 26.6 °F 65% 29.56 in 10.0 mi ENE 17.3 mph - N/A   Overcast
12:16 PM 37.4 °F 27.5 °F 26.6 °F 65% 29.56 in 10.0 mi ENE 18.4 mph - N/A   Overcast
12:36 PM 37.4 °F 28.5 °F 26.6 °F 65% 29.56 in 10.0 mi ENE 15.0 mph - N/A   Overcast
12:56 PM 37.4 °F 27.8 °F 28.4 °F 70% 29.56 in 10.0 mi ENE 17.3 mph - N/A   Overcast
1:16 PM 37.4 °F 26.6 °F 28.4 °F 70% 29.56 in 10.0 mi ENE 21.9 mph 28.8 mph N/A   Overcast
1:36 PM 37.4 °F 26.9 °F 26.6 °F 65% 29.56 in 10.0 mi NE 20.7 mph - N/A   Overcast
1:56 PM 37.4 °F 27.8 °F 26.6 °F 65% 29.56 in 10.0 mi ENE 17.3 mph - N/A   Overcast
2:16 PM 37.4 °F 28.5 °F 26.6 °F 65% 29.56 in 10.0 mi ENE 15.0 mph - N/A   Overcast
2:36 PM 37.4 °F 27.8 °F 28.4 °F 70% 29.55 in 10.0 mi NE 17.3 mph 25.3 mph N/A   Overcast
2:56 PM 37.4 °F 27.2 °F 28.4 °F 70% 29.55 in 10.0 mi NE 19.6 mph 24.2 mph N/A   Overcast
3:16 PM 37.4 °F 26.9 °F 28.4 °F 70% 29.55 in 10.0 mi NE 20.7 mph - N/A   Overcast
3:36 PM 37.4 °F 27.2 °F 28.4 °F 70% 29.55 in 10.0 mi NE 19.6 mph - N/A   Overcast
3:56 PM 37.4 °F 26.6 °F 30.2 °F 75% 29.54 in 10.0 mi NE 21.9 mph 27.6 mph N/A   Overcast
4:16 PM 37.4 °F 25.9 °F 28.4 °F 70% 29.55 in 10.0 mi NE 25.3 mph 31.1 mph N/A   Overcast
4:36 PM 37.4 °F 25.9 °F 28.4 °F 70% 29.55 in 10.0 mi NE 25.3 mph - N/A   Overcast
4:56 PM 37.4 °F 27.2 °F 30.2 °F 75% 29.54 in 10.0 mi NE 19.6 mph - N/A   Mostly Cloudy
5:16 PM 37.4 °F 27.5 °F 30.2 °F 75% 29.55 in 10.0 mi NE 18.4 mph 23.0 mph N/A   Overcast
5:36 PM 37.4 °F 27.5 °F 30.2 °F 75% 29.55 in 10.0 mi NE 18.4 mph 27.6 mph N/A   Overcast
5:56 PM 37.4 °F 27.5 °F 30.2 °F 75% 29.55 in 10.0 mi NE 18.4 mph - N/A   Overcast
6:16 PM 37.4 °F 27.5 °F 30.2 °F 75% 29.55 in 10.0 mi NE 18.4 mph - N/A   Mostly Cloudy
6:36 PM 37.4 °F 26.9 °F 30.2 °F 75% 29.55 in 10.0 mi NE 20.7 mph - N/A   Overcast
6:56 PM 37.4 °F 26.1 °F 30.2 °F 75% 29.55 in 10.0 mi NE 24.2 mph 27.6 mph N/A   Overcast
7:16 PM 37.4 °F 26.1 °F 30.2 °F 75% 29.55 in 10.0 mi NE 24.2 mph 28.8 mph N/A   Overcast
7:36 PM 37.4 °F 26.6 °F 28.4 °F 70% 29.55 in 10.0 mi NE 21.9 mph 28.8 mph N/A   Overcast
7:56 PM 37.4 °F 27.2 °F 30.2 °F 75% 29.56 in 10.0 mi NE 19.6 mph 29.9 mph N/A   Overcast
8:16 PM 37.4 °F 26.4 °F 30.2 °F 75% 29.56 in 10.0 mi NE 23.0 mph 34.5 mph N/A   Overcast
8:36 PM 37.4 °F 26.6 °F 30.2 °F 75% 29.56 in 10.0 mi NE 21.9 mph - N/A   Overcast
8:56 PM 35.6 °F 23.7 °F 30.2 °F 81% 29.56 in 9.0 mi NE 24.2 mph 32.2 mph N/A   Overcast
9:16 PM 35.6 °F 24.0 °F 30.2 °F 81% 29.57 in 7.0 mi ENE 23.0 mph 31.1 mph N/A   Overcast
9:36 PM 35.6 °F 23.7 °F 30.2 °F 81% 29.57 in 10.0 mi NE 24.2 mph 28.8 mph N/A   Mostly Cloudy
9:56 PM 35.6 °F 24.8 °F 30.2 °F 81% 29.57 in 10.0 mi NE 19.6 mph - N/A   Mostly Cloudy
10:16 PM 35.6 °F 24.5 °F 30.2 °F 81% 29.57 in 10.0 mi NE 20.7 mph 26.5 mph N/A   Mostly Cloudy
10:36 PM 37.4 °F 26.6 °F 30.2 °F 75% 29.57 in 10.0 mi NE 21.9 mph 29.9 mph N/A   Overcast
10:56 PM 35.6 °F 24.2 °F 30.2 °F 81% 29.57 in 10.0 mi NE 21.9 mph 25.3 mph N/A   Mostly Cloudy
11:16 PM 37.4 °F 26.1 °F 30.2 °F 75% 29.56 in 10.0 mi NE 24.2 mph 27.6 mph N/A   Overcast
11:56 PM 35.6 °F 24.0 °F 28.4 °F 75% 29.56 in 10.0 mi NE 23.0 mph 26.5 mph N/A   Mostly Cloudy